This is the latest recevied weather packets stored in our database for station/object KI4FRU. If no packets are shown the sender has not sent any weather packets the latest 10 day(s).
| Time | Temp. | Humidity | Pressure | Rain* | Wind** | Luminosity | Snow |
|---|---|---|---|---|---|---|---|
| 1777772884 | 11.67° C | 66% | 1054 hPa | 0 mm | - | 0 W/m² | - |
| 1777772582 | 11.67° C | 65% | 1053.8 hPa | 0 mm | - | 0 W/m² | - |
| 1777772279 | 11.67° C | 63% | 1053.8 hPa | 0 mm | - | 0 W/m² | - |
| 1777771976 | 11.67° C | 62% | 1053.7 hPa | 0 mm | - | 0 W/m² | - |
| 1777771673 | 12.22° C | 62% | 1053.4 hPa | 0 mm | - | 0 W/m² | - |
| 1777771370 | 12.22° C | 62% | 1053.5 hPa | 0 mm | - | 0 W/m² | - |
| 1777771067 | 12.78° C | 61% | 1053.3 hPa | 0 mm | - | 0 W/m² | - |
| 1777770764 | 12.78° C | 60% | 1053.1 hPa | 0 mm | - | 0 W/m² | - |
| 1777770460 | 13.33° C | 60% | 1053.2 hPa | 0 mm | - | 0 W/m² | - |
| 1777770157 | 13.33° C | 58% | 1053.1 hPa | 0 mm | - | 0 W/m² | - |
| 1777769855 | 13.33° C | 59% | 1053 hPa | 0 mm | - | 0 W/m² | - |
| 1777769552 | 13.89° C | 56% | 1053 hPa | 0 mm | - | 0 W/m² | - |
| 1777769247 | 13.89° C | 57% | 1052.9 hPa | 0 mm | - | 0 W/m² | - |
| 1777768946 | 14.44° C | 56% | 1052.9 hPa | 0 mm | - | 0 W/m² | - |
| 1777768643 | 14.44° C | 54% | 1052.9 hPa | 0 mm | - | 0 W/m² | - |
| 1777768340 | 14.44° C | 54% | 1052.6 hPa | 0 mm | - | 0 W/m² | - |
| 1777768037 | 15° C | 53% | 1052.6 hPa | 0 mm | - | 0 W/m² | - |
| 1777767734 | 15° C | 52% | 1052.4 hPa | 0 mm | - | 1 W/m² | - |
| 1777767430 | 15° C | 54% | 1052.3 hPa | 0 mm | - | 1 W/m² | - |
| 1777767126 | 15° C | 52% | 1052.2 hPa | 0 mm | - | 2 W/m² | - |
| 1777766824 | 15.56° C | 52% | 1052.3 hPa | 0 mm | - | 3 W/m² | - |
| 1777766522 | 15.56° C | 52% | 1052.1 hPa | 0 mm | - | 6 W/m² | - |
| 1777766218 | 16.11° C | 52% | 1052.1 hPa | 0 mm | - | 6 W/m² | - |
| 1777765916 | 15.56° C | 52% | 1051.8 hPa | 0 mm | - | 9 W/m² | - |
| 1777765612 | 15.56° C | 52% | 1052 hPa | 0 mm | - | 12 W/m² | - |
* Rain latest hour (hover to see other rain measurements)
** Current wind speed in m/s (hover to see current wind gust speed)